百度云电影论坛

 找回密码
 立即注册
搜索
热搜: 活动 交友 discuz
收藏本版 |订阅

立体3D电影 今日: 0|主题: 400|排名: 8 

12
返 回 发新帖
作者 回复/查看 最后发表
[BT下载]魔兽[3D上下]2016.1080p.3D.BluRay.Half-OU.x264.TrueHD.7.1.Atmos-FGT 21GB ... attach_img 电影分享 2016-9-11 0169 电影分享 2016-9-11 23:59
[BT下载]魔兽[3D上下]2016.1080p.3D.BluRay.Half-OU.x264.DTS-HD.MA.7.1-FGT 20.7GB . ... attach_img 电影分享 2016-9-11 0178 电影分享 2016-9-11 23:59
[BT下载]X战警:天启[3D左右]2016.1080p.3D.BluRay.Half-SBS.x264.DTS-HD.MA.7.1-FGT 2 ... 电影分享 2016-9-11 0122 电影分享 2016-9-11 23:59
[BT下载]X战警:天启[3D上下]2016.1080p.3D.BluRay.Half-OU.x264.DTS-HD.MA.7.1-FGT 25 ... 电影分享 2016-9-11 0106 电影分享 2016-9-11 23:59
[BT下载]美国队长3[3D上下]2016.1080p.3D.BluRay.Half-OU.x264.DTS-HD.MA.7.1-FGT 24G ... attach_img 电影分享 2016-9-6 0113 电影分享 2016-9-6 23:34
[BT下载]美国队长3[3D左右]2016.1080p.3D.BluRay.Half-SBS.x264.DTS-HD.MA.7.1-FGT 24 ... attach_img 电影分享 2016-9-6 0128 电影分享 2016-9-6 23:34
[BT下载]金翅雀/黄雀 Yellowbird.3D.2014.1080p.BluRay.x264-PussyFoot 7.65GB attach_img 电影分享 2016-9-6 0117 电影分享 2016-9-6 23:34
[BT下载]金翅雀/黄雀 Yellowbird.3D.2014.720p.BluRay.x264-PussyFoot 4.42GB attach_img 电影分享 2016-9-6 0109 电影分享 2016-9-6 23:34
[BT下载]奇幻森林[3D左右]2016.BluRay.1080p.HSBS.x264-CMCT[国英双语/中英字幕/16.83 ... attach_img 电影分享 2016-9-4 0265 电影分享 2016-9-4 11:30
[BT下载]宾虚以情之名 In.The.Name.of.Ben.Hur.2016.3D.720p.BluRay.x264-VALUE 4.37G ... attach_img 电影分享 2016-8-26 0216 电影分享 2016-8-26 22:31
[BT下载]黑湖妖谭 Creature.from.the.Black.Lagoon.1954.3D.1080p.BluRay.x264-SADPAN ... attach_img 电影分享 2016-8-26 0130 电影分享 2016-8-26 22:31
[BT下载]邪恶小分队 Sinister.Squad.2016.3D.1080p.BluRay.x264-VALUE 6.55GB 电影分享 2016-8-26 0119 电影分享 2016-8-26 22:31
[BT下载]邪恶小分队 Sinister.Squad.2016.3D.720p.BluRay.x264-VALUE 4.37GB attach_img 电影分享 2016-8-26 0158 电影分享 2016-8-26 22:31
[BT下载]奇幻森林[3D左右]2016.1080p.3D.BluRay.Half-SBS.x264.DTS-HD.MA.7.1-FGT 21G ... attach_img 电影分享 2016-8-18 0230 电影分享 2016-8-18 21:54
[BT下载]奇幻森林[3D上下]2016.1080p.3D.BluRay.Half-OU.x264.DTS-HD.MA.7.1-FGT 21.3 ... attach_img 电影分享 2016-8-18 0112 电影分享 2016-8-18 21:54
[BT下载]奇幻森林[3D左右]The.Jungle.Book.2016.3D.1080p.BluRay.x264-PSYCHD 8GB ... attach_img 电影分享 2016-8-18 0174 电影分享 2016-8-18 21:54
[BT下载]犯罪活动[3D左右]Criminal.Activities.2015.3D.720p.BluRay.x264-VALUE 3.27G ... attach_img 电影分享 2016-8-11 0158 电影分享 2016-8-11 16:29
[BT下载]犯罪活动[3D左右]Criminal.Activities.2015.3D.1080p.BluRay.x264-VALUE 6.56 ... attach_img 电影分享 2016-8-11 0167 电影分享 2016-8-11 16:29
[BT下载]猎神:冬日之战[3D左右]2016.3D.1080p.BluRay.x264-SPRiNTER 8.74GB attach_img 电影分享 2016-8-8 0167 电影分享 2016-8-8 16:00
[BT下载]女孩们的周末[3D左右]All.Girls.Weekend.2016.3D.1080p.BluRay.x264-VALUE 6. ... attach_img 电影分享 2016-8-5 0186 电影分享 2016-8-5 03:46
[BT下载]女孩们的周末[3D左右]All.Girls.Weekend.2016.3D.720p.BluRay.x264-VALUE 4.3 ... attach_img 电影分享 2016-8-5 0140 电影分享 2016-8-5 03:46
[BT下载]愤怒的小鸟[3D左右]Angry.Birds.2016.3D.1080p.BluRay.x264-SPRiNTER 5.46GB ... attach_img 电影分享 2016-8-5 0190 电影分享 2016-8-5 03:46
[BT下载]猎神:冬日之战[3D上下]2016.1080p.3D.BluRay.Half-OU.x264.DTS-HD.MA.7.1-RAR ... 电影分享 2016-8-5 0134 电影分享 2016-8-5 03:46
[BT下载]猎神:冬日之战[3D左右]2016.1080p.3D.BluRay.Half-SBS.x264.DTS-HD.MA.7.1-RA ... 电影分享 2016-8-5 0124 电影分享 2016-8-5 03:46
[BT下载]愤怒的小鸟[3D左右 国粤英]2016.1080p.Half-SBS.3D.BluRay.x264.DTS-WiKi 8.7 ... attach_img 电影分享 2016-8-3 0141 电影分享 2016-8-3 15:43
[BT下载]愤怒的小鸟[3D上下]2016.1080p.3D.BluRay.Half-OU.x264.DTS-HD.MA.7.1-RARBG ... 电影分享 2016-8-3 096 电影分享 2016-8-3 15:43
[BT下载]愤怒的小鸟[3D左右]2016.1080p.3D.BluRay.Half-SBS.x264.DTS-HD.MA.7.1-RARBG ... 电影分享 2016-8-3 0188 电影分享 2016-8-3 15:43
[BT下载]功夫熊猫3[3D左右 国粤英台]2016.1080p.Half-SBS.3D.BluRay.x264.DTS-WiKi 8. ... attach_img 电影分享 2016-7-12 0655 电影分享 2016-7-12 12:12
[BT下载]蝙蝠侠大战超人:正义黎明[3D上下]2016.1080p.3D.BluRay.Half-OU.x264.TrueHD. ... attach_img 电影分享 2016-7-9 0248 电影分享 2016-7-9 11:57
[BT下载]蝙蝠侠大战超人:正义黎明[3D上下]2016.1080p.3D.BluRay.Half-OU.x264.DTS-HD. ... attach_img 电影分享 2016-7-9 0165 电影分享 2016-7-9 11:57
[BT下载]蝙蝠侠大战超人:正义黎明[3D左右]201.1080p.3D.BluRay.Half-SBS.x264.TrueHD. ... attach_img 电影分享 2016-7-9 0219 电影分享 2016-7-9 11:57
[BT下载]蝙蝠侠大战超人:正义黎明[3D左右]2016.1080p.3D.BluRay.Half-SBS.x264.DTS-HD ... attach_img 电影分享 2016-7-9 0215 电影分享 2016-7-9 11:57
[BT下载]美人鱼[国英双语]The.Mermaid.2016.LIMITED.720p.BluRay.x264-USURY 5.47GB ... attach_img 电影分享 2016-7-9 0184 电影分享 2016-7-9 11:57
[BD-3D] [BT下载]美人鱼[国英双语]The.Mermaid.2016.LIMITED.1080p.BluRay.x264-USURY ... attach_img 电影分享 2016-7-9 0221 电影分享 2016-7-9 11:57
[BT下载]蝙蝠侠大战超人:正义黎明[3D左右]2016.3D.1080p.BluRay.x264-SPRiNTER 9.8GB ... attach_img 电影分享 2016-7-8 0209 电影分享 2016-7-8 11:57
[BT下载]功夫熊猫3[3D左右]2016.1080p.3D.BluRay.Half-SBS.x264.DTS-HD.MA.7.1-RARBG ... attach_img 电影分享 2016-7-2 0270 电影分享 2016-7-2 22:43
[BT下载]功夫熊猫3[3D上下]2016.1080p.3D.BluRay.Half-OU.x264.DTS-HD.MA.7.1-RARBG 1 ... attach_img 电影分享 2016-7-2 0184 电影分享 2016-7-2 22:43
[BT下载]功夫熊猫3[3D左右]Kung.Fu.Panda.3.2016.3D.1080p.BluRay.x264-SPRiNTER 4.37 ... attach_img 电影分享 2016-7-2 0164 电影分享 2016-7-2 22:43
[BT下载]Milwood.2013.3D.1080p.BluRay.x264-VALUE 6.57GB attach_img 电影分享 2016-7-2 0256 电影分享 2016-7-2 22:43
[BT下载]Milwood.2013.3D.720p.BluRay.x264-VALUE 4.37GB attach_img 电影分享 2016-7-2 0117 电影分享 2016-7-2 22:43
[BT下载]大白鲨3[3D左右]Jaws.3D.1983.1080p.BluRay.x264-PSYCHD 9.83GB attach_img 电影分享 2016-6-22 0206 电影分享 2016-6-22 17:15
[BT磁链] [疯狂动物城].Zootopia.2016.1080p.Half-SBS.3D.BluRay.x264.DTS-WiKi[9.85G ... attach_img 电影分享 2016-6-15 0407 电影分享 2016-6-15 16:46
[BT下载]太空之旅/宇宙之旅[3D左右]Journey.to.Space.2015.3D.1080p.BluRay.x264-SPRi ... attach_img 电影分享 2016-6-12 0237 电影分享 2016-6-12 16:30
[BT下载]神战:权力之眼[3D左右]Gods.of.Egypt.2016.3D.1080p.BluRay.x264-PSYCHD 10.9 ... attach_img 电影分享 2016-6-10 0181 电影分享 2016-6-10 16:24
[BT下载]疯狂动物城[3D左右]Zootopia.2016.3D.1080p.BluRay.x264-PSYCHD 8.74GB ... . ... attach_img 电影分享 2016-6-10 0258 电影分享 2016-6-10 16:24
[BT下载]鸭尊宝[3D左右]Quackerz.2016.1080p.3D.BluRay.Half-SBS.x264.DTS-HD.MA.5.1- ... attach_img 电影分享 2016-6-7 0229 电影分享 2016-6-7 16:05
[BT下载]鸭尊宝[3D上下]Quackerz.2016.1080p.3D.BluRay.Half-OU.x264.DTS-HD.MA.5.1-R ... attach_img 电影分享 2016-6-7 0216 电影分享 2016-6-7 16:05
[BT下载]美国恐怖/恐怖行动 An.American.Terror.3D.2014.1080p.BluRay.x264-UNVEiL 6. ... attach_img 电影分享 2016-6-1 0260 电影分享 2016-6-1 15:46
123 电影分享 2016-6-1 0213 电影分享 2016-6-1 15:46
[BT下载][美人鱼][左右格式].2016.3D.BluRay.1080p.HSBS.x264.TrueHD5.1.2Audios-CMCT ... attach_img 电影分享 2016-5-31 0205 电影分享 2016-5-31 15:41
[BT下载][美人鱼][上下格式].2016.3D.BluRay.1080p.HOU.x264.TrueHD5.1.2Audios-CMCT[ ... attach_img 电影分享 2016-5-31 0142 电影分享 2016-5-31 15:41
[BT下载]恶灵狂呼[3D左右]Poltergeist.Activity.2015.3D.1080p.BluRay.x264-VALUE 6.6 ... attach_img 电影分享 2016-5-30 0206 电影分享 2016-5-30 15:36
[BT下载]怒海救援[3D上下]2016.1080p.3D.BluRay.Half-OU.x264.DTS-HD.MA.HR.7.1-RARBG ... attach_img 电影分享 2016-5-29 0143 电影分享 2016-5-29 15:30
[BT下载]怒海救援[3D左右]2016.1080p.3D.BluRay.Half-SBS.x264.DTS-HD.MA.HR.7.1-RARB ... attach_img 电影分享 2016-5-29 0151 电影分享 2016-5-29 15:30
[BT下载]疯狂动物城[3D上下]2016.1080p.3D.BluRay.Half-OU.x264.DTS-HD.MA.7.1-RARBG ... attach_img 电影分享 2016-5-29 0198 电影分享 2016-5-29 15:30
[BT下载]疯狂动物城[3D左右]2016.1080p.3D.BluRay.Half-SBS.x264.DTS-HD.MA.7.1-RARBG ... attach_img 电影分享 2016-5-29 0197 电影分享 2016-5-29 15:30
[BT磁链][美人鱼].The.Mermaid.2016.1080p.Half-SBS.3D.BluRay.x264-WiKi[12.6G] ... ... attach_img 电影分享 2016-5-28 0268 电影分享 2016-5-28 15:25
[BT下载]死亡地堡/亡命地堡[3D左右]Bunker.of.the.Dead.2015.3D.1080p.BluRay.x264-VA ... attach_img 电影分享 2016-5-28 0167 电影分享 2016-5-28 15:25
[BT下载]死亡地堡/亡命地堡[3D左右]Bunker.of.the.Dead.2015.3D.720p.BluRay.x264-VAL ... attach_img 电影分享 2016-5-28 0143 电影分享 2016-5-28 15:25
[BT下载][神战:权力之眼][3D左右].2016.3D.BluRay.1080p.HSBS.x264.DTS.X.7.1-CMCT[1 ... attach_img 电影分享 2016-5-26 0175 电影分享 2016-5-26 15:16
[BT下载][神战:权力之眼][3D上下].2016.3D.BluRay.1080p.HOU.x264.DTS.X.7.1-CMCT[14 ... attach_img 电影分享 2016-5-26 0141 电影分享 2016-5-26 15:16
[BT下载]神战:权力之眼[3D上下]2016.1080p.3D.BluRay.Half-OU.x264.DTS-HD.MA.7.1-RAR ... attach_img 电影分享 2016-5-21 0158 电影分享 2016-5-21 14:59
[BT下载]神战:权力之眼[3D左右]2016.1080p.3D.BluRay.Half-SBS.x264.DTS-HD.MA.7.1-RA ... attach_img 电影分享 2016-5-21 0203 电影分享 2016-5-21 14:59
[BT下载]偷车贼[3D左右]Boost.2016.3D.1080p.BluRay.x264-VALUE 6.55GB attach_img 电影分享 2016-5-15 0165 电影分享 2016-5-15 14:26
[BT下载]偷车贼[3D左右]Boost.3D.2016.720p.BluRay.x264-VALUE 4.37GB attach_img 电影分享 2016-5-15 0173 电影分享 2016-5-15 14:26
医院2[3D左右][BT下载]The.Hospital.2.3D.2015.1080p.BluRay.x264-UNVEiL 6.55GB ... ... attach_img 电影分享 2016-5-8 0353 电影分享 2016-5-8 13:50
[BT下载]医院[3D左右]The.Hospital.3D.2013.1080p.BluRay.x264-UNVEiL 5.46GB attach_img 电影分享 2016-5-8 0165 电影分享 2016-5-8 13:50
[BT下载]鬼哭神嚎的房子[3D左右]The.Amityville.Playhouse.2015.3D.720p.BluRay.x264- ... attach_img 电影分享 2016-5-6 0141 电影分享 2016-5-6 13:42
[BT下载][九层妖塔(3D左右半宽)]2015.BluRay.1080p.HSBS.x264-CMCT[3D中文字幕/10.8G] ... attach_img 电影分享 2016-5-3 0154 电影分享 2016-5-3 13:30
[BT下载][九层妖塔(3D版上下半高)]2015.BluRay.1080p.HOU.x264-CMCT[3D中文字幕/10.8G ... attach_img 电影分享 2016-5-3 0195 电影分享 2016-5-3 13:30
九层妖塔[BT下载][3D左右 中字]2015.1080p.3D.BluRay.Half-SBS.x264.DD5.1-WiKi 10GB ... attach_img 电影分享 2016-4-25 0801 电影分享 2016-4-25 12:43
[BT下载]西游记之三打白骨精[3D上下]2016.1080p.3D.BluRay.Half-OU.x264.TrueHD.7.1.A ... attach_img 电影分享 2016-4-16 0180 电影分享 2016-4-16 12:08
[BT下载]西游记之三打白骨精[3D左右]2016.1080p.3D.BluRay.Half-SBS.x264.TrueHD.7.1. ... attach_img 电影分享 2016-4-16 0254 电影分享 2016-4-16 12:08
[BT下载]地狱亡魂/被诅咒之物[3D左右]2014.3D.720p.BluRay.x264-VALUE 4.37GB ... ... ... attach_img 电影分享 2016-4-15 0136 电影分享 2016-4-15 12:03
[BT下载]地狱亡魂/被诅咒之物[3D左右]2014.3D.1080p.BluRay.x264-VALUE 6.55GB ... .. ... attach_img 电影分享 2016-4-15 0138 电影分享 2016-4-15 12:03
[BT下载]冬荫功2:拳霸天下[3D左右]2013.3D.1080p.BluRay.x264-SADPANDA 9.8GB ... ... ... attach_img 电影分享 2016-4-12 0162 电影分享 2016-4-12 11:51
[BT下载]我唾弃你的坟墓3:复仇在我[3D左右]3D.2015.1080p.BluRay.x264-UNVEiL 6.56GB ... attach_img 电影分享 2016-4-9 0189 电影分享 2016-4-9 11:37
[BT下载][极盗者].2015.3D.BluRay.1080p.HOU.x264.DTS-HD.MA7.1-CMCT[上下/中英字幕/1 ... attach_img 电影分享 2016-4-6 0170 电影分享 2016-4-6 11:28
[BT下载]三个火枪手[3D上下]2011.1080p.3D.BluRay.Half-OU.x264.DTS-HD.MA.5.1-RARBG ... attach_img 电影分享 2016-3-28 0131 电影分享 2016-3-28 10:45
[BT下载]三个火枪手[3D左右]2011.1080p.3D.BluRay.Half-SBS.x264.DTS-HD.MA.5.1-RARBG ... attach_img 电影分享 2016-3-28 0146 电影分享 2016-3-28 10:45
[BT下载]海底总动员[3D左右]2003.1080p.3D.BluRay.Half-SBS.x264.TrueHD.7.1-RARBG 17 ... attach_img 电影分享 2016-3-27 0188 电影分享 2016-3-27 10:45
[BT下载]火星地[3D左右]Martian.Land.3D.2015.1080p.BluRay.x264-UNVEiL 6.55GB ... . ... attach_img 电影分享 2016-3-27 0195 电影分享 2016-3-27 10:45
[BT下载]海底总动员[3D上下]2003.1080p.3D.BluRay.Half-OU.x264.TrueHD.7.1-RARBG 17G ... attach_img 电影分享 2016-3-27 0141 电影分享 2016-3-27 10:45
[BT下载]恶魔尖叫[3D左右]Scream.at.the.Devil.2015.3D.1080p.BluRay.x264-VALUE 6.56 ... attach_img 电影分享 2016-3-21 0208 电影分享 2016-3-21 10:30
[BT下载]恶魔尖叫[3D左右]Scream.at.the.Devil.2015.3D.720p.BluRay.x264-VALUE 4.37G ... attach_img 电影分享 2016-3-21 0156 电影分享 2016-3-21 10:30
[BT下载]复活的小红帽[3D左右]Little.Dead.Rotting.Hood.2016.3D.1080p.BluRay.x264-V ... attach_img 电影分享 2016-3-21 0210 电影分享 2016-3-21 10:30
[BT下载]复活的小红帽[3D左右]Little.Dead.Rotting.Hood.2016.3D.720p.BluRay.x264-VA ... attach_img 电影分享 2016-3-21 0192 电影分享 2016-3-21 10:30
[BT下载]饥饿游戏3:嘲笑鸟(下)[3D上下]2015.1080p.3D.BluRay.Half-OU.x264.DTS-HD.MA. ... attach_img 电影分享 2016-3-20 0202 电影分享 2016-3-20 22:26
[BT下载]饥饿游戏3:嘲笑鸟(下)[3D上下]2015.1080p.3D.BluRay.Half-OU.x264.TrueHD.7.1 ... attach_img 电影分享 2016-3-20 0195 电影分享 2016-3-20 22:26
[BT下载]饥饿游戏3:嘲笑鸟(下)[3D左右]2015.1080p.3D.BluRay.Half-SBS.x264.TrueHD.7. ... attach_img 电影分享 2016-3-20 0305 电影分享 2016-3-20 22:26
[BT下载]饥饿游戏3:嘲笑鸟(下)[3D左右]2015.1080p.3D.BluRay.Half-SBS.x264.DTS-HD.MA ... attach_img 电影分享 2016-3-20 0208 电影分享 2016-3-20 22:26
[BT下载]史努比:花生大电影[3D上下]2015.3D.BluRay.1080p.HOU.x264.DTS-CMCT[英国粤台 ... attach_img 电影分享 2016-3-20 0323 电影分享 2016-3-20 22:26
[BT下载]史努比:花生大电影[3D左右]2015.3D.BluRay.1080p.HSBS.x264.DTS-CMCT[英国粤 ... attach_img 电影分享 2016-3-20 0204 电影分享 2016-3-20 22:26
[BT下载][极盗者].Point.Break.2015.1080p.Half-SBS.3D.BluRay.x264.DTS-WiKi[13.21G] ... attach_img 电影分享 2016-3-20 0194 电影分享 2016-3-20 22:26
[BT下载]疯狂的动物[3D左右]Get.Squirrely.2015.3D.1080p.BluRay.x264-VALUE 4.37GB . ... attach_img 电影分享 2016-3-18 0156 电影分享 2016-3-18 10:17
[BT下载]极盗者[3D上下Point.Break.2015.1080p.3D.BluRay.Half-OU.x264.DTS-HD.MA.7.1 ... attach_img 电影分享 2016-3-15 0222 电影分享 2016-3-15 10:03
[BT下载]极盗者[3D左右]Point.Break.2015.1080p.3D.BluRay.Half-SBS.x264.DTS-HD.MA.7 ... attach_img 电影分享 2016-3-15 0333 电影分享 2016-3-15 10:03
[BT下载]史努比:花生大电影[3D上下]2015.1080p.3D.BluRay.Half-OU.x264.DTS-HD.MA.7.1 ... attach_img 电影分享 2016-3-15 0285 电影分享 2016-3-15 10:03
[BT下载]史努比:花生大电影[3D左右]2015.1080p.3D.BluRay.Half-SBS.x264.DTS-HD.MA.7. ... attach_img 电影分享 2016-3-15 0194 电影分享 2016-3-15 10:03
[BT下载]海洋深处[3D左右]In.the.Heart.of.the.Sea.2015.3D.1080p.BluRay.x264-PSYCHD ... attach_img 电影分享 2016-3-11 0278 电影分享 2016-3-11 09:45
[BT下载]美国吵闹鬼[3D左右]American.Poltergeist.3D.2015.1080p.BluRay.x264-UNVEiL ... attach_img 电影分享 2016-3-8 0248 电影分享 2016-3-8 09:32
[BT下载]小丑[3D左右]Clown.2014.3D.720p.BluRay.x264-VALUE 4.36GB 电影分享 2016-3-5 0174 电影分享 2016-3-5 13:54
[BT下载]小丑[3D左右]Clown.3D.2014.LIMITED.1080p.BluRay.x264-UNVEiL 7.64GB 电影分享 2016-3-5 0219 电影分享 2016-3-5 13:54
[BT下载][海洋深处][3D左右]2015.3D.BluRay.1080p.HSBS.x264.TrueHD7.1-CMCT[中英字幕 ... 电影分享 2016-3-3 0232 电影分享 2016-3-3 13:41
[BT下载]枪手哈特/来者不善[3D左右]Comin.at.Ya.1981.3D.1080p.BluRay.x264-SADPANDA ... 电影分享 2016-3-2 0164 电影分享 2016-3-2 13:35
[BT下载][海洋深处][3D上下]2015.3D.BluRay.1080p.HOU.x264.TrueHD7.1-CMCT[中英字幕/ ... 电影分享 2016-3-2 0168 电影分享 2016-3-2 13:35
[BT下载][恐龙当家][3D上下]2015.3D.BluRay.1080p.HOU.x264.DTS-HD.MA7.1-CMCT[中英字 ... 电影分享 2016-2-29 0224 电影分享 2016-2-29 13:25
[BT下载]海洋深处[3D上下]2015.1080p.3D.BluRay.Half-OU.x264.TrueHD.7.1.Atmos-RARBG ... 电影分享 2016-2-26 0161 电影分享 2016-2-26 13:08
[BT下载]海洋深处[3D上下]2015.1080p.3D.BluRay.Half-OU.x264.DTS-HD.MA.7.1-RARBG 18 ... 电影分享 2016-2-26 0182 电影分享 2016-2-26 13:08
[BT下载]海洋深处[3D左右]2015.1080p.3D.BluRay.Half-SBS.x264.TrueHD.7.1.Atmos-RARB ... 电影分享 2016-2-26 0213 电影分享 2016-2-26 13:08
[BT下载]海洋深处[3D左右]2015.1080p.3D.BluRay.Half-SBS.x264.DTS-HD.MA.7.1-RARBG 1 ... 电影分享 2016-2-26 0192 电影分享 2016-2-26 13:08
[BT下载]恐龙当家[3D左右]The.Good.Dinosaur.2015.3D.1080p.BluRay.x264-PSYCHD 6.5GB ... 电影分享 2016-2-26 0251 电影分享 2016-2-26 13:08
[BT下载][恐龙当家][3D左右]2015.3D.BluRay.1080p.HSBS.x264.DTS-HD.MA7.1-CMCT[中英 ... 电影分享 2016-2-25 0185 电影分享 2016-2-25 13:01
[BT下载]壮志凌云[3D上下]Top.Gun.1986.1080p.3D.BluRay.Half-OU.x264.DTS-HD.MA.6.1- ... 电影分享 2016-2-20 0293 电影分享 2016-2-20 12:37
[BT下载]壮志凌云[3D左右]Top.Gun.1986.1080p.3D.BluRay.Half-SBS.x264.DTS-HD.MA.6.1 ... 电影分享 2016-2-20 0218 电影分享 2016-2-20 12:37
[BT下载]骸骨面/魔眼[3D左右]The.Mask.1961.3D.1080p.BluRay.x264-SADPANDA 8.7GB ... ... 电影分享 2016-2-20 0202 电影分享 2016-2-20 12:37
[BT下载]恐龙当家[3D上下]2015.1080p.3D.BluRay.Half-OU.x264.DTS-HD.MA.7.1-RARBG 16 ... 电影分享 2016-2-10 0246 电影分享 2016-2-10 11:23
[BT下载]恐龙当家[3D左右]2015.1080p.3D.BluRay.Half-SBS.x264.DTS-HD.MA.7.1-RARBG 1 ... 电影分享 2016-2-10 0341 电影分享 2016-2-10 11:23
[BT下载]狮子王[3D上下]1994.1080p.3D.BluRay.Half-OU.x264.DTS-HD.MA.7.1-RARBG 16GB ... 电影分享 2016-2-7 0306 电影分享 2016-2-7 10:54
[BT下载]狮子王[3D左右]1994.1080p.3D.BluRay.Half-SBS.x264.DTS-HD.MA.7.1-RARBG 16G ... 电影分享 2016-2-7 0331 电影分享 2016-2-7 10:54
[BT下载][鸡皮疙瘩]2015.3D.BluRay.1080p.HOU.x264.DTS-HD.MA5.1-CMCT[中英字幕/10.3G ... 电影分享 2016-2-7 0172 电影分享 2016-2-7 10:54
[BT下载][鸡皮疙瘩]2015.3D.BluRay.1080p.HSBS.x264.DTS-HD.MA5.1-CMCT[中英字幕/10.3 ... 电影分享 2016-2-7 0231 电影分享 2016-2-7 10:54
[BT下载]鬼娃娃的杀戮[3D左右]Playing.with.Dolls.Bloodlust.2016.3D.720p.BluRay.x26 ... 电影分享 2016-2-3 0243 电影分享 2016-2-3 10:42
[BT下载]666:禽兽[3D左右]666.The.Beast.3D.2007.1080p.BluRay.x264-UNVEiL 6.5GB ... ... 电影分享 2016-2-2 0227 电影分享 2016-2-2 10:40
[BT下载]少年派的奇幻漂流[3D左右]2012.1080p.3D.BluRay.Half-SBS.x264.DTS-HD.MA.7.1 ... 电影分享 2016-1-31 0238 电影分享 2016-1-31 10:34
[BT下载]少年派的奇幻漂流[3D上下]2012.1080p.3D.BluRay.Half-OU.x264.DTS-HD.MA.7.1- ... 电影分享 2016-1-31 0165 电影分享 2016-1-31 10:34
[BT下载]鸡皮疙瘩[3D左右]Goosebumps.2015.3D.1080p.BluRay.x264-PSYCHD 7.69GB ... . ... 电影分享 2016-1-29 0171 电影分享 2016-1-29 10:21
[BT下载]绝命海拔/圣母峰[3D左右]Everest.2015.3D.1080p.BluRay.x264-PSYCHD 7.9GB .. ... 电影分享 2016-1-29 0546 电影分享 2016-1-29 10:21
[BT下载]精灵旅社2[3D左右]Hotel.Transylvania.2.2015.3D.1080p.BluRay.x264-PSYCHD 6 ... 电影分享 2016-1-22 0186 电影分享 2016-1-22 09:50
[BT下载]火星救援[3D左右]The.Martian.2015.3D.1080p.BluRay.x264-PSYCHD 11GB ... .. ... 电影分享 2016-1-22 0216 电影分享 2016-1-22 09:50
[BT下载]瑜伽熊/瑜珈熊[3D左右]2010.1080p.3D.BluRay.Half-SBS.x264.DTS-HD.MA.5.1-RA ... 电影分享 2016-1-18 0203 电影分享 2016-1-18 09:05
[BT下载]瑜伽熊/瑜珈熊[3D上下]2010.1080p.3D.BluRay.Half-OU.x264.DTS-HD.MA.5.1-RAR ... 电影分享 2016-1-18 0232 电影分享 2016-1-18 09:05
[BT下载]吸血鬼猎人林肯[3D左右]2012.1080p.3D.BluRay.Half-SBS.x264.DTS-HD.MA.7.1-R ... 电影分享 2016-1-18 0241 电影分享 2016-1-18 09:05
[BT下载]鸡皮疙瘩[3D上下]2015.1080p.3D.BluRay.Half-OU.x264.DTS-HD.MA.TrueHD.7.1-R ... 电影分享 2016-1-16 0195 电影分享 2016-1-16 08:42
[BT下载]鸡皮疙瘩[3D左右]2015.1080p.3D.BluRay.Half-SBS.x264.DTS-HD.MA.TrueHD.7.1- ... 电影分享 2016-1-16 0202 电影分享 2016-1-16 08:42
[BT下载][火星救援]2015.3D.BluRay.1080p.HSBS.x264.DTS-HD.MA7.1-CMCT[国英双语/中英 ... 电影分享 2016-1-15 0302 电影分享 2016-1-15 08:33
[BT下载]恐怖蜡像馆[3D左右]House.of.Wax.1953.3D.1080p.BluRay.x264-SADPANDA 6.5GB ... 电影分享 2016-1-8 0238 电影分享 2016-1-8 19:59
[BT下载][小王子][3D上下]2015.3D.BluRay.1080p.HOU.x264.AC3.3Audios-CMCT[中英字幕/ ... 电影分享 2016-1-8 0267 电影分享 2016-1-8 19:59
[BT下载][小王子][3D左右]2015.3D.BluRay.1080p.HOU.x264.AC3.3Audios-CMCT[中英字幕/ ... 电影分享 2016-1-8 0217 电影分享 2016-1-8 19:59
[BT下载]绝命海拔[3D左右]2015.1080p.3D.BluRay.Half-SBS.x264.TrueHD.7.1.Atmos-RARB ... 电影分享 2016-1-8 0256 电影分享 2016-1-8 19:59
[BT下载]绝命海拔[3D左右]2015.1080p.3D.BluRay.Half-SBS.x264.DTS-HD.MA.7.1-RARBG 1 ... 电影分享 2016-1-8 0199 电影分享 2016-1-8 19:59
[BT下载]绝命海拔[3D上下]2015.1080p.3D.BluRay.Half-OU.x264.TrueHD.7.1.Atmos-RARBG ... 电影分享 2016-1-8 0325 电影分享 2016-1-8 19:59
[BT下载]绝命海拔[3D上下]2015.1080p.3D.BluRay.Half-OU.x264.DTS-HD.MA.7.1-RARBG 18 ... 电影分享 2016-1-8 0170 电影分享 2016-1-8 19:59
[BT下载]我们依然在这[3D左右]We.Are.Still.Here.2015.3D.720p.BluRay.x264.RERiP-VAL ... attach_img 电影分享 2016-1-5 0171 电影分享 2016-1-5 16:52
[BT下载]鬼影实录5:鬼次元[3D上下]2015.1080p.3D.BluRay.Half-OU.x264.DTS-HD.MA.5.1- ... attach_img 电影分享 2016-1-5 0156 电影分享 2016-1-5 16:52
[BT下载]鬼影实录5:鬼次元[3D左右]2015.1080p.3D.BluRay.Half-SBS.x264.DTS-HD.MA.5.1 ... attach_img 电影分享 2016-1-5 0219 电影分享 2016-1-5 16:52
[BT下载]火星救援[3D上下]2015.1080p.3D.BluRay.Half-OU.x264.DTS-HD.MA.7.1-RARBG 24 ... attach_img 电影分享 2016-1-3 0376 电影分享 2016-1-3 16:29
[BT下载]我们依然在这[3D左右]We.Are.Still.Here.2015.3D.1080p.BluRay.x264-VALUE 5. ... attach_img 电影分享 2016-1-3 0173 电影分享 2016-1-3 16:29
[BT下载]我们依然在这[3D左右]We.Are.Still.Here.2015.3D.720p.BluRay.x264-VALUE 3.2 ... attach_img 电影分享 2016-1-3 0169 电影分享 2016-1-3 16:29
[BT下载]火星救援[3D左右]2015.1080p.3D.BluRay.Half-SBS.x264.DTS-HD.MA.7.1-RARBG 2 ... attach_img 电影分享 2016-1-2 0277 电影分享 2016-1-2 16:20
小黄人大眼萌[3D左右]Minions.2015.1080p.3D.BluRay.Half-SBS.x264.DTS-HD.MA.7.1-RAR ... 电影分享 2015-12-31 0277 电影分享 2015-12-31 16:08
小黄人大眼萌/迷你兵团/小小兵[3D左右]Minions.2015.3D.1080p.BluRay.x264-SPRiNTER 4 ... attach_img 电影分享 2015-12-31 0272 电影分享 2015-12-31 16:08
霍比特人3[3D左右]2014.DISC1.EXTENDED.1080p.3D.BluRay.Half-SBS.x264.DTS-HD.MA.7.1 ... attach_img 电影分享 2015-12-31 0251 电影分享 2015-12-31 03:54
我,机器人/智能叛变/机械公敌[3D左右]I.Robot.2004.3D.PROPER.1080p.BluRay.x264-SADP ... 电影分享 2015-12-31 0179 电影分享 2015-12-31 03:54
霍比特人3:五军之战[加长版/3D左右]2014.3D.EXTENDED.1080p.BluRay.x264-PSYCHD 13GB ... attach_img 电影分享 2015-12-31 0209 电影分享 2015-12-31 03:54
七个小矮人[3D左右]The.Seventh.Dwarf.2014.3D.DUBBED.RERiP.1080p.BluRay.x264-SADPA ... attach_img 电影分享 2015-12-31 0203 电影分享 2015-12-31 03:54
七个小矮人[3D左右]The.Seventh.Dwarf.2014.3D.1080p.BluRay.x264-SADPANDA 6.56GB .. ... attach_img 电影分享 2015-12-31 0230 电影分享 2015-12-31 03:54
九层妖塔 Chronicles.of.the.Ghostly.Tribe.2015.3D.BluRay.Half.SBS.x264.AAC-SeeHD ... attach_img 电影分享 2015-12-31 0237 电影分享 2015-12-31 03:54
恶魔/叫魂/恐怖屋[3D左右]Demonic.3D.2015.RERiP.1080p.BluRay.x264-UNVEiL 6.57GB .. ... attach_img 电影分享 2015-12-31 0171 电影分享 2015-12-31 03:54
恶魔/叫魂/恐怖屋[3D左右]Demonic.3D.2015.1080p.BluRay.x264-UNVEiL 6.56GB attach_img 电影分享 2015-12-31 0228 电影分享 2015-12-31 03:54
头脑特工队[3D左右]Inside.Out.2015.3D.1080p.BluRay.x264.Half-SBS.DTS-iFT 9.23GB . ... attach_img 电影分享 2015-12-31 0150 电影分享 2015-12-31 03:54
小黄人/迷你兵团[3D左右]Minions.2015.3D.1080p.Bluray.x264.Half-SBS.DD5.1-iFT 8.32 ... attach_img 电影分享 2015-12-31 0180 电影分享 2015-12-31 03:54
小黄人大眼萌 国粤英台 Minions.2015.1080p.Half-SBS.3D.BluRay.x264.DTS-WiKi 11.5G ... attach_img 电影分享 2015-12-31 0220 电影分享 2015-12-31 03:54
头脑特工队/玩转脑朋友[3D左右]Inside.Out.2015.3D.1080p.BluRay.x264-SPRiNTER 4.37G ... attach_img 电影分享 2015-12-31 0194 电影分享 2015-12-31 03:54
小黄人大眼萌[3D上下]Minions.2015.1080p.3D.BluRay.Half-OU.x264.TrueHD.7.1.Atmos-R ... 电影分享 2015-12-31 0316 电影分享 2015-12-31 03:54
小黄人大眼萌[3D上下]Minions.2015.1080p.3D.BluRay.Half-OU.x264.DTS-HD.MA.7.1-RARB ... 电影分享 2015-12-31 0162 电影分享 2015-12-31 03:54
小黄人大眼萌[3D左右]Minions.2015.1080p.3D.BluRay.Half-SBS.x264.TrueHD.7.1.Atmos- ... 电影分享 2015-12-31 0152 电影分享 2015-12-31 03:54
[BT下载]精灵旅社2[3D左右]Hotel.Transylvania.2.2015.3D.1080p.BluRay.x264-SPRiNTER ... attach_img 电影分享 2015-12-30 0244 电影分享 2015-12-30 15:47
爱恋/爱恋3D[3D左右]Love.2015.3D.LIMITED.1080p.BluRay.x264-PSYCHD 9.83GB attach_img 电影分享 2015-12-30 0270 电影分享 2015-12-30 15:47
八爪狂鲨大战梭鱼翼龙[3D左右]Sharktopus.vs.Pteracuda.3D.2014.1080p.BluRay.x264-UN ... attach_img 电影分享 2015-12-30 0176 电影分享 2015-12-30 15:47
小王子[3D上下]The.Little.Prince.2015.1080p.3D.BluRay.Half-OU.x264.TrueHD.7.1-RAR ... attach_img 电影分享 2015-12-30 0153 电影分享 2015-12-30 15:47
暗月升起/黑月升起[3D左右]Dark.Moon.Rising.2015.3D.1080p.BluRay.x264-VALUE 6.55GB ... attach_img 电影分享 2015-12-30 0150 电影分享 2015-12-30 15:47
小王子[3D左右]The.Little.Prince.2015.1080p.3D.BluRay.Half-SBS.x264.TrueHD.7.1-RA ... attach_img 电影分享 2015-12-30 0187 电影分享 2015-12-30 15:47
暗月升起/黑月升起[3D左右]Dark.Moon.Rising.2015.3D.720p.BluRay.x264-VALUE 4.36GB ... attach_img 电影分享 2015-12-30 0143 电影分享 2015-12-30 15:47
蚁人/蚁侠[3D上下]Ant-Man.2015.1080p.3D.BluRay.Half-OU.x264.DTS-HD.MA.7.1-RARBG 1 ... attach_img 电影分享 2015-12-30 0245 电影分享 2015-12-30 15:47
蚁人/蚁侠[3D左右]Ant-Man.2015.1080p.3D.BluRay.Half-SBS.x264.DTS-HD.MA.7.1-RARBG ... attach_img 电影分享 2015-12-30 0178 电影分享 2015-12-30 15:47
蚁人/蚁侠[3D左右]Ant-Man.2015.3D.1080p.BluRay.x264-SPRiNTER 8.75GB attach_img 电影分享 2015-12-30 0277 电影分享 2015-12-30 15:47
霍比特人3[3D上下]2014.DISC2.EXTENDED.1080p.3D.BluRay.Half-OU.x264.DTS-HD.MA.7.1- ... attach_img 电影分享 2015-12-30 0165 电影分享 2015-12-30 15:47
霍比特人3[3D左右]2014.DISC2.EXTENDED.1080p.3D.BluRay.Half-SBS.x264.DTS-HD.MA.7.1 ... attach_img 电影分享 2015-12-30 0129 电影分享 2015-12-30 15:47
霍比特人3[3D上下]2014.DISC1.EXTENDED.1080p.3D.BluRay.Half-OU.x264.DTS-HD.MA.7.1- ... attach_img 电影分享 2015-12-30 0123 电影分享 2015-12-30 15:47
[BT下载]云中行走/走钢索的人[3D上下]2015.1080p.3D.BluRay.Half-OU.x264.DTS-HD.MA.5 ... attach_img 电影分享 2015-12-30 0157 电影分享 2015-12-30 03:42
[BT下载][小飞侠:幻梦启航]2015.3D.BluRay.1080p.HSBS.x264-CMCT[国英双语/中英字幕/ ... attach_img 电影分享 2015-12-30 0198 电影分享 2015-12-30 03:42
小飞侠:幻梦启航/彼得·潘[3D左右]2015.1080p.3D.BluRay.Half-SBS.x264.TrueHD.7.1.At ... attach_img 电影分享 2015-12-30 0175 电影分享 2015-12-30 03:42
小飞侠:幻梦启航/彼得·潘[3D左右]2015.1080p.3D.BluRay.Half-SBS.x264.DTS-HD.MA.7.1 ... attach_img 电影分享 2015-12-30 0142 电影分享 2015-12-30 03:42
小飞侠:幻梦启航/彼得·潘[3D上下]2015.1080p.3D.BluRay.Half-OU.x264.TrueHD.7.1.Atm ... attach_img 电影分享 2015-12-30 0162 电影分享 2015-12-30 03:42
小飞侠:幻梦启航/彼得·潘[3D上下]2015.1080p.3D.BluRay.Half-OU.x264.DTS-HD.MA.7.1- ... attach_img 电影分享 2015-12-30 0134 电影分享 2015-12-30 03:42
爱恋/爱恋3D[3D上下Love.2015.1080p.3D.BluRay.Half-OU.x264.DTS-HD.MA.5.1-RARBG 19. ... attach_img 电影分享 2015-12-30 0227 电影分享 2015-12-30 03:42
爱恋/爱恋3D[3D左右]Love.2015.1080p.3D.BluRay.Half-SBS.x264.DTS-HD.MA.5.1-RARBG 1 ... attach_img 电影分享 2015-12-30 0242 电影分享 2015-12-30 03:42
耶路撒冷[3D左右]Jerusalem.2013.3D.DOCU.1080p.BluRay.x264-PSYCHD 4.37GB attach_img 电影分享 2015-12-30 0142 电影分享 2015-12-30 03:42
[蚁人]2015.3D.BluRay.1080p.HSBS.x264.DTS.2Audios-CMCT[国英双语/中英字幕/12.2G] . ... attach_img 电影分享 2015-12-30 0115 电影分享 2015-12-30 03:42
[BT下载]精灵旅社2[3D左右]2015.1080p.3D.BluRay.Half-SBS.x264.DTS-HD.MA.5.1-RARBG ... attach_img 电影分享 2015-12-29 0158 电影分享 2015-12-29 15:24
[BT下载]精灵旅社2[3D上下]2015.1080p.3D.BluRay.Half-OU.x264.DTS-HD.MA.5.1-RARBG 1 ... attach_img 电影分享 2015-12-29 0139 电影分享 2015-12-29 15:24
[BT下载]诺亚方舟漂流记[3D左右]Ooops.Noah.is.Gone.2015.3D.1080p.BluRay.x264-VALUE ... attach_img 电影分享 2015-12-29 0239 电影分享 2015-12-29 15:24
[BT下载]诺亚方舟漂流记[3D左右]Ooops.Noah.is.Gone.2015.3D.720p.BluRay.x264-VALUE ... attach_img 电影分享 2015-12-29 0331 电影分享 2015-12-29 15:24
[BT下载]云中行走/走钢索的人[3D左右]The.Walk.2015.3D.1080p.BluRay.x264-SPRiNTER 8 ... attach_img 电影分享 2015-12-29 0322 电影分享 2015-12-29 15:24
[BT下载]极地特快[3D上下]2004.1080p.3D.BluRay.Half-OU.x264.DTS-HD.MA.5.1-RARBG 17 ... attach_img 电影分享 2015-12-29 0177 电影分享 2015-12-29 15:24
[BT下载]极地特快[3D左右]2004.1080p.3D.BluRay.Half-SBS.x264.DTS-HD.MA.5.1-RARBG 1 ... attach_img 电影分享 2015-12-29 0175 电影分享 2015-12-29 15:24
[BT下载]小飞侠:幻梦启航/彼得·潘[3D左右]Pan.2015.3D.1080p.BluRay.x264-PSYCHD 8GB ... attach_img 电影分享 2015-12-29 0236 电影分享 2015-12-29 15:24
[BT下载]北极熊[3D左右]Polar.Bears.Ice.Bear.2013.3D.1080p.BluRay.x264-SADPANDA 4. ... attach_img 电影分享 2015-12-29 0116 电影分享 2015-12-29 15:24
[BT下载]云中行走/走钢索的人[3D左右]2015.1080p.3D.BluRay.Half-SBS.x264.DTS-HD.MA. ... attach_img 电影分享 2015-12-29 0138 电影分享 2015-12-29 15:24
下一页 »
12
返 回 发新帖

快速发帖

还可输入 80 个字符
您需要登录后才可以发帖 登录 | 立即注册

本版积分规则


小黑屋|百度云电影论坛 ( 浙ICP备15033899号-1 )

GMT+8, 2017-6-24 18:32 , Processed in 0.124448 second(s), 16 queries .

Powered by Discuz! X3.2

© 2001-2013 Comsenz Inc.

返回顶部 返回版块